Location: ?ern� Novina
(50.6762°N, 14.8696°E)
Time: 02:51:31
(UTC+00:00)

Cosmos 2219 Rocket - Pass Details

Date: 03 March 2021
Orbit: 826 x 848 km, 71.0° (Epoch: 13 April)

Event Time Altitude Azimuth Distance (km) Brightness Sun altitude
Rises 17:43:27 0° 155° (SSE) 3,355 5.1 -10.0°
Reaches altitude 10° 17:46:44 10° 136° (SE) 2,430 4.2 -10.5°
Maximum altitude 17:50:05 17° 98° (E) 2,017 3.5 -11.0°
Drops below altitude 10° 17:53:28 10° 61° (ENE) 2,448 4.1 -11.6°
Enters shadow 17:53:48 - 58° (ENE) 2,529 4.2 -11.6°
Exits shadow 17:55:33 - 47° (NE) 3,009 4.7 -11.9°
Sets 17:56:46 0° 41° (NE) 3,392 5.0 -12.1°
